Wind_Speed
37 39 39 37 34 30 27 24 23 23 22 19 16 15 14 12 9 8 8 9 11 14 17 25 28 26 27 18 16 14 24 14 21 16 17 16 17 16 15 15 14 16 15
37 38 37 36 33 31 28 25 24 24 22 20 18 16 15 13 11 10 10 9 12 16 21 23 24 26 20 14 15 17 14 21 28 22 20 15 16 14 14 14 14 13 13
34 35 34 34 34 32 28 25 25 25 23 22 19 17 16 14 13 10 10 10 11 15 20 24 23 25 19 15 15 15 15 21 24 23 20 19 16 15 14 13 12 11 10
31 32 34 36 36 32 29 26 26 26 25 23 20 17 16 14 13 11 11 11 12 13 18 20 22 22 19 16 15 14 15 19 19 25 22 20 18 17 15 14 12 12 11
30 31 33 33 34 31 28 27 26 26 25 23 22 19 17 15 14 12 13 14 13 14 16 18 19 19 16 13 13 14 16 19 20 22 19 15 16 17 17 15 14 12 10
28 30 31 32 32 31 29 27 27 26 25 24 23 21 19 17 15 13 13 15 14 14 17 16 16 16 15 13 11 9 10 18 22 23 21 23 23 23 21 19 15 11 6
26 27 29 31 32 32 31 29 29 28 26 26 24 22 20 18 16 14 13 15 16 14 16 17 17 16 15 14 11 9 9 11 11 14 23 25 23 24 23 21 21 18 11
24 25 27 29 31 33 33 32 30 29 29 28 25 23 21 19 18 16 15 15 17 16 15 16 16 16 16 15 14 14 13 12 13 12 12 17 18 15 20 23 23 21 18
25 26 28 30 32 33 33 33 32 31 29 27 25 24 23 22 20 18 17 16 17 17 15 15 14 14 15 15 16 17 16 16 15 14 12 12 11 9 11 17 22 20 14
28 28 29 30 32 35 35 33 32 31 29 26 25 24 23 22 22 21 19 18 16 17 16 15 14 14 16 18 18 19 19 18 17 16 14 12 11 10 11 13 17 22 15
24 26 28 29 32 34 34 33 32 31 28 27 25 23 22 21 22 23 21 19 18 16 16 17 15 13 13 15 16 17 16 12 13 12 11 12 12 12 13 14 16 17 21
20 24 27 29 31 33 34 32 32 31 29 28 26 23 23 22 21 22 22 20 18 17 16 14 13 14 12 12 10 9 10 10 8 11 13 15 15 16 16 15 14 16 17
19 25 28 29 31 32 34 35 33 32 33 31 30 29 26 24 23 21 21 22 19 18 15 15 14 15 15 14 13 13 13 13 13 13 15 16 16 15 13 15 14 16 18
19 23 27 30 32 32 33 36 37 35 32 32 28 24 28 27 26 25 25 24 22 19 17 16 14 14 14 14 15 15 15 16 16 16 15 14 13 12 12 12 13 14 16
18 21 25 30 33 35 36 38 39 39 42 39 35 34 32 33 35 31 29 28 25 21 19 17 16 16 16 17 17 16 16 16 15 14 13 13 11 10 9 9 11 11 13
19 22 25 27 29 30 32 30 32 36 37 38 36 38 36 32 33 29 26 23 23 23 21 22 23 22 21 20 19 18 18 18 17 15 15 14 13 11 10 9 10 11 12
21 22 24 26 26 26 26 27 22 22 27 33 35 33 33 29 27 30 28 26 25 24 23 23 25 26 26 23 22 20 19 18 15 15 14 14 12 11 11 10 9 10 9
20 22 23 25 25 25 26 25 25 25 24 25 26 29 28 27 26 34 32 28 26 24 25 24 25 25 24 23 22 20 19 15 14 13 13 13 12 12 11 10 9 7 4
20 23 23 24 26 26 25 26 24 24 24 24 27 25 28 28 26 34 35 34 33 31 27 24 23 21 20 20 19 19 16 15 12 11 12 12 12 11 9 7 5 3 2
20 23 26 26 25 26 26 25 25 25 24 26 27 29 31 28 31 35 38 35 31 30 29 26 22 20 20 20 20 18 17 16 15 14 13 12 12 11 9 8 7 5 4
22 22 24 25 25 26 26 27 26 27 25 26 28 33 41 37 33 36 36 35 31 29 27 24 22 21 21 21 21 21 20 19 17 15 15 13 12 12 12 11 10 9 8
21 23 26 24 25 25 26 26 26 27 27 25 25 31 38 31 33 34 35 32 30 27 26 24 24 23 23 23 23 23 22 21 19 17 16 15 13 13 12 12 11 9 8
22 22 23 23 25 25 26 26 26 26 27 28 28 31 37 32 32 34 35 33 30 29 27 27 27 26 24 24 22 21 20 19 16 14 14 14 13 13 12 11 11 10 8
22 23 22 23 24 25 25 25 27 28 28 30 32 31 32 34 36 37 36 33 31 31 30 30 29 28 26 24 22 19 16 15 14 14 12 12 12 10 9 8 8 6 4
23 22 22 23 24 25 26 26 27 29 29 29 32 31 31 37 38 38 37 36 34 34 33 31 29 26 24 22 19 15 14 13 12 11 10 10 10 9 8 7 6 5 4
24 24 24 23 24 26 27 28 28 29 30 29 29 37 39 39 40 41 40 39 38 36 34 30 27 24 22 19 17 16 15 14 12 11 10 9 9 8 7 6 5 3 3
Wind_Direction
184 190 194 192 193 194 197 194 191 188 187 186 181 173 172 169 166 161 150 141 146 144 150 153 154 153 151 146 146 143 144 138 127 133 134 130 123 121 122 120 122 120 119
188 191 193 191 190 192 195 193 190 188 188 186 183 178 175 171 167 168 163 149 155 153 155 156 154 162 155 149 150 148 153 151 142 140 146 143 137 138 136 137 135 134 134
187 188 189 189 190 193 192 191 188 187 187 185 185 182 178 175 169 167 168 160 156 165 164 169 163 168 157 157 159 155 154 156 151 154 154 159 153 156 152 152 150 150 151
189 189 188 190 191 193 191 189 187 186 185 185 186 184 180 176 172 168 166 165 161 173 174 175 176 178 174 165 162 162 161 164 162 161 157 163 168 171 177 174 172 174 175
187 189 191 191 192 191 189 189 186 186 187 187 184 183 181 182 176 169 174 174 174 173 173 177 182 184 188 183 178 171 174 171 170 171 166 174 184 186 194 188 195 197 203
190 190 191 190 190 189 188 187 186 186 187 187 187 185 184 184 179 174 172 175 179 177 174 174 180 183 186 192 197 197 194 184 182 183 187 193 200 205 202 202 200 200 227
191 192 191 190 189 188 187 187 187 186 186 189 190 189 189 185 180 180 180 179 182 183 180 182 186 190 195 198 201 202 204 211 222 221 209 213 215 218 213 209 214 217 225
193 194 193 191 190 189 188 188 187 187 188 190 190 191 190 188 181 182 183 181 180 185 189 192 196 198 201 201 200 204 209 208 217 230 236 242 246 253 239 236 233 232 240
195 196 195 194 191 190 190 189 189 188 190 192 192 191 191 191 185 186 186 185 185 187 190 195 201 205 207 211 215 217 216 218 220 226 230 235 241 241 239 229 228 221 237
200 200 198 197 196 193 194 192 191 193 193 193 193 196 195 195 190 187 191 191 188 188 192 195 200 208 213 215 215 217 217 225 225 226 231 235 236 231 233 238 241 226 222
208 205 202 202 200 199 196 195 192 193 194 192 194 194 198 199 195 194 194 196 196 196 198 197 196 196 197 202 208 218 228 232 226 228 234 239 239 240 242 239 240 242 240
213 209 205 204 202 200 200 196 195 194 191 190 191 192 197 199 200 199 197 201 200 204 206 204 195 190 190 191 198 213 231 232 223 227 235 239 244 248 249 248 251 251 252
211 210 207 204 203 203 200 198 195 196 194 190 191 192 194 196 200 199 199 198 201 206 209 214 209 203 203 206 211 217 223 226 224 225 240 250 253 260 260 252 247 247 249
213 211 208 204 202 204 204 203 198 195 191 190 188 186 194 194 197 197 197 195 198 202 206 208 214 208 208 212 214 217 223 226 224 229 242 255 259 254 251 252 249 246 251
221 217 212 207 203 201 205 206 204 207 204 195 197 196 189 195 201 200 194 193 195 198 195 200 201 204 205 207 212 218 225 225 225 228 239 250 250 249 246 238 242 243 239
216 216 213 206 200 200 199 202 211 216 213 216 216 210 208 212 204 197 196 192 194 194 193 201 205 208 210 208 212 215 220 224 226 230 233 240 243 240 233 228 235 243 248
217 219 215 206 197 192 194 193 191 204 215 216 219 221 221 214 206 191 189 190 197 198 206 212 214 213 214 213 212 214 219 221 225 227 231 230 227 227 228 228 229 233 248
217 220 215 205 200 195 195 196 188 181 180 192 212 216 216 211 208 191 188 188 190 203 209 206 211 210 214 219 216 217 219 220 220 216 213 209 211 211 206 219 227 225 229
218 213 213 213 210 201 194 191 189 183 181 179 185 194 203 202 196 190 189 191 194 199 206 209 213 214 213 214 216 214 212 205 202 202 192 186 182 192 190 188 196 195 188
223 224 209 205 200 194 190 187 185 185 182 181 183 186 187 182 186 190 194 199 201 204 204 206 210 212 211 208 203 199 190 181 171 166 162 164 164 167 165 159 155 152 138
216 214 210 194 194 192 190 189 189 186 187 188 188 190 189 181 182 187 192 197 201 202 203 202 201 196 192 188 183 177 170 160 155 152 151 153 156 154 155 152 147 149 147
208 199 199 200 188 191 191 191 190 188 184 185 184 189 188 181 182 184 190 195 197 197 197 191 183 177 173 171 170 166 161 155 153 154 153 153 158 157 156 149 141 149 148
210 198 194 197 191 190 189 186 186 188 182 178 179 175 178 178 179 183 187 191 189 185 183 179 173 166 166 165 166 165 162 158 160 166 167 165 165 160 157 146 143 141 141
216 202 198 197 191 185 189 186 184 183 181 172 172 177 177 176 181 185 185 182 179 174 171 170 168 163 162 160 160 161 164 164 163 163 164 162 163 161 156 159 161 163 166
215 207 203 198 193 190 184 183 181 177 176 177 172 171 174 176 180 182 178 175 171 167 164 163 162 161 163 162 161 168 178 183 173 175 188 193 196 189 188 183 193 202 208
215 210 207 202 193 193 188 182 179 176 173 174 173 169 173 175 180 176 172 169 165 163 162 162 162 163 165 169 173 180 183 182 186 190 195 193 184 176 177 173 175 178 149
Height
740 748 756 764 771 777 783 788 794 800 805 810 815 817 821 824 826 828 829 830 831 834 837 839 842 845 848 851 853 853 856 858 865 877 880 882 884 885 887 888 889 890 891
736 745 753 761 768 774 779 785 791 797 803 807 812 816 820 823 826 828 829 831 832 835 838 842 846 849 851 853 855 857 859 861 863 872 879 882 884 887 888 890 891 892 892
735 742 750 759 765 771 777 784 789 795 801 806 811 815 818 822 825 827 829 832 834 836 840 842 846 849 852 855 857 858 861 864 868 871 877 881 885 887 889 891 892 892 893
735 741 747 754 761 768 775 781 786 792 797 803 808 813 817 821 824 827 829 832 835 837 841 844 847 851 854 855 858 861 862 865 869 872 876 880 883 886 888 889 891 892 892
732 738 744 752 759 766 773 779 785 790 795 800 806 811 816 819 822 826 828 832 835 838 841 844 847 851 855 857 858 860 863 866 869 873 876 879 882 884 885 887 889 891 892
731 736 742 750 756 764 771 777 783 787 792 798 803 808 813 817 821 825 828 831 834 837 840 845 848 852 855 857 859 861 863 864 867 870 873 875 877 880 883 886 888 889 892
730 735 741 747 753 759 766 772 778 784 789 795 801 805 811 815 819 823 826 830 834 836 839 843 846 849 853 856 859 862 863 865 868 869 870 872 874 876 880 883 884 886 887
729 734 739 745 751 757 762 768 774 780 786 791 797 803 809 813 817 821 825 828 832 835 839 841 845 848 851 854 856 859 861 864 866 869 870 872 874 875 877 879 881 884 885
726 731 736 742 747 754 760 765 770 776 783 788 793 799 804 810 814 819 822 826 830 833 837 840 844 847 850 853 856 858 860 862 864 867 867 869 871 873 874 877 878 881 882
722 727 733 739 744 750 756 762 767 774 780 786 791 796 801 806 811 817 821 824 827 831 834 837 841 845 847 850 852 855 857 859 862 863 865 867 869 870 871 873 875 877 879
722 726 730 736 741 747 754 759 765 770 777 783 789 793 797 803 808 814 819 822 825 828 832 835 837 841 844 846 849 852 855 857 859 862 864 865 867 869 870 871 872 873 874
719 724 728 733 738 744 749 756 761 767 773 779 785 789 794 799 804 810 815 820 824 827 829 833 837 839 843 846 848 851 853 855 857 859 861 862 864 865 867 868 869 870 871
716 720 724 729 734 740 746 751 757 762 768 773 779 783 788 794 799 805 810 815 819 824 828 831 834 837 840 844 846 848 850 852 854 856 857 859 861 863 864 864 866 867 867
713 716 721 725 730 735 741 746 751 755 760 765 771 777 783 789 793 798 803 809 814 818 823 827 831 834 837 840 843 845 847 848 850 851 854 856 857 859 859 861 862 863 864
710 714 718 721 724 729 734 738 743 747 751 756 762 769 774 780 783 789 795 801 806 812 817 821 825 829 831 834 838 841 843 844 846 847 849 852 853 854 856 857 858 860 860
706 709 712 717 720 724 728 734 739 743 749 754 758 761 767 773 779 786 792 797 802 807 811 814 817 821 824 827 831 834 836 839 840 842 843 846 849 851 852 853 855 857 858
700 705 710 713 715 719 724 728 733 740 745 750 754 759 764 769 775 782 787 793 798 802 804 809 812 815 817 821 824 826 829 831 834 837 839 840 843 846 849 850 851 853 854
695 699 703 706 710 714 719 724 727 732 737 743 749 754 760 766 771 777 783 789 793 796 799 801 806 809 813 817 820 823 826 828 830 831 832 835 839 841 843 846 849 850 851
689 690 694 700 706 710 714 720 725 729 733 739 745 751 756 761 766 773 777 780 785 789 794 797 801 805 808 813 816 820 822 825 827 829 831 833 835 839 841 844 847 849 851
684 687 688 693 700 705 709 714 719 724 728 732 738 743 749 757 761 765 770 774 780 784 788 793 798 801 805 808 812 816 818 821 823 827 830 833 835 838 840 842 844 846 848
676 682 687 687 693 698 702 706 712 716 722 726 730 736 740 746 752 758 764 769 774 779 784 788 793 797 800 805 809 813 817 820 822 826 829 833 836 836 838 839 840 843 845
673 674 680 685 685 692 696 702 706 710 715 721 727 732 738 744 748 753 760 766 770 775 780 784 789 794 798 803 808 812 816 818 821 824 827 830 834 835 837 838 838 841 842
671 671 674 680 681 686 691 694 700 706 709 715 722 727 733 738 744 750 755 762 767 772 776 782 787 792 797 802 807 812 816 818 821 825 827 830 833 834 836 837 839 841 843
669 667 669 672 677 679 685 689 694 700 706 707 714 723 728 732 739 745 751 758 764 769 774 780 786 791 797 801 806 811 815 818 820 824 827 828 832 834 834 836 838 839 840
664 664 665 667 671 674 678 683 687 692 699 705 708 715 723 728 735 741 747 754 761 767 773 779 786 790 796 800 803 810 814 817 819 823 827 829 831 832 834 835 837 837 838
659 659 661 663 665 670 673 676 680 686 691 700 705 708 716 725 732 736 742 749 757 765 772 778 784 789 795 799 801 807 813 814 817 821 825 828 830 832 834 835 837 839 839